Weather History for KAEJ - March, 2014

Change the Weather History Date:

Friday, March 7, 2014

  Actual Average (KLXV) Record (KLXV)
Temperature  
Mean Temperature 34 °F -  
Max Temperature 41 °F 35 °F 51 °F (1987)
Min Temperature 26 °F 9 °F -3 °F (1991)
Degree Days  
Heating Degree Days 32 43  
Month to date heating degree days 305  
Since 1 July heating degree days 8015  
Cooling Degree Days 0 0  
Month to date cooling degree days 0  
Year to date cooling degree days 0  
Moisture  
Dew Point 25 °F    
Average Humidity 72    
Maximum Humidity 94    
Minimum Humidity 48    
Precipitation  
Precipitation 0.00 in 0.02 in 0.14 in (2014)
Month to date precipitation 0.19  
Year to date precipitation 1.51  
Sea Level Pressure  
Sea Level Pressure 29.94 in    
Wind  
Wind Speed 10 mph (NNW)    
Max Wind Speed 23 mph    
Max Gust Speed 30 mph    
Visibility 8 miles    
Events Snow    
T = Trace of Precipitation, MM = Missing Value Source: NWS Daily Summary

Daily Weather History Graph

Daily Weather History Graph

Search for Another Location

Airport or City:

Trip Planner

Search our weather history database for the weather conditions in past years. The results will help you decide how hot, cold, wet, or windy it might be!

Date:

Astronomy

Mar. 07, 2014 Rise Set
Actual Time 6:27 AM MST 6:03 PM MST
Civil Twilight 6:01 AM MST 6:30 PM MST
Nautical Twilight 5:30 AM MST 7:01 PM MST
Astronomical Twilight 4:59 AM MST 7:32 PM MST
Moon 10:26 AM MST (3/7) 12:07 AM MST (3/7)
Length of Visible Light 12h 28m
Length of Day
11h 35m
Waxing Crescent, 42% of the Moon is Illuminated
Mar 7
Waxing Crescent
Mar 8
First Quarter
Mar 16
Full
Mar 23
Last Quarter
Mar 30
New

Hourly Weather History & Observations

Time (MST) Temp. Windchill Dew Point Humidity Pressure Visibility Wind Dir Wind Speed Gust Speed Precip Events Conditions
12:15 AM 36.9 °F 25.6 °F 23.0 °F 57% 29.94 in 10.0 mi West 23.0 mph 28.8 mph N/A   Clear
12:35 AM 37.6 °F 26.6 °F 22.3 °F 54% 29.93 in 10.0 mi West 23.0 mph 29.9 mph N/A   Clear
12:55 AM 37.4 °F 27.5 °F 22.5 °F 55% 29.93 in 10.0 mi West 18.4 mph 24.2 mph N/A   Clear
1:15 AM 37.9 °F 27.9 °F 22.5 °F 54% 29.93 in 10.0 mi WSW 19.6 mph 29.9 mph N/A   Clear
1:35 AM 38.1 °F 29.1 °F 21.7 °F 52% 29.93 in 10.0 mi WSW 16.1 mph 20.7 mph N/A   Clear
1:55 AM 39.2 °F 33.0 °F 21.2 °F 49% 29.92 in 10.0 mi West 9.2 mph 18.4 mph N/A   Clear
2:15 AM 37.9 °F 32.1 °F 21.2 °F 51% 29.91 in 10.0 mi West 8.1 mph - N/A   Clear
2:35 AM 36.7 °F 29.9 °F 20.5 °F 52% 29.90 in 10.0 mi WNW 9.2 mph 16.1 mph N/A   Clear
2:55 AM 36.9 °F 30.7 °F 20.8 °F 52% 29.90 in 10.0 mi West 8.1 mph - N/A   Clear
3:15 AM 34.9 °F 29.0 °F 20.8 °F 57% 29.89 in 10.0 mi West 6.9 mph - N/A   Clear
3:35 AM 33.8 °F 30.8 °F 21.2 °F 60% 29.88 in 10.0 mi NNE 3.5 mph - N/A   Clear
3:55 AM 33.3 °F 27.1 °F 21.4 °F 62% 29.88 in 10.0 mi North 6.9 mph - N/A   Scattered Clouds
4:15 AM 32.7 °F 25.7 °F 21.9 °F 64% 29.88 in 10.0 mi NNW 8.1 mph - N/A   Mostly Cloudy
4:35 AM 32.7 °F 26.4 °F 21.7 °F 64% 29.88 in 10.0 mi NNW 6.9 mph - N/A   Mostly Cloudy
4:55 AM 33.4 °F 25.9 °F 21.9 °F 63% 29.88 in 10.0 mi NW 9.2 mph - N/A   Overcast
5:15 AM 34.0 °F 27.2 °F 21.9 °F 61% 29.89 in 10.0 mi WNW 8.1 mph - N/A   Overcast
5:35 AM 34.7 °F - 22.3 °F 61% 29.89 in 10.0 mi Calm Calm - N/A   Overcast
5:55 AM 33.3 °F - 22.1 °F 64% 29.89 in 10.0 mi Calm Calm - N/A   Overcast
6:15 AM 32.9 °F 29.8 °F 22.6 °F 66% 29.89 in 10.0 mi ENE 3.5 mph - N/A   Overcast
6:35 AM 32.5 °F - 22.8 °F 67% 29.89 in 10.0 mi Calm Calm - N/A   Overcast
6:55 AM 32.0 °F - 23.5 °F 71% 29.89 in 10.0 mi Calm Calm - N/A   Overcast
7:15 AM 32.2 °F - 23.7 °F 71% 29.89 in 10.0 mi North - - N/A   Overcast
7:35 AM 33.3 °F - 23.7 °F 68% 29.89 in 10.0 mi North - - N/A   Overcast
7:55 AM 35.1 °F - 23.5 °F 63% 29.89 in 10.0 mi North - - N/A   Overcast
8:15 AM 36.7 °F - 22.8 °F 57% 29.89 in 10.0 mi North - - N/A   Overcast
8:35 AM 37.6 °F - 22.3 °F 54% 29.89 in 10.0 mi Calm Calm - N/A   Overcast
8:55 AM 38.3 °F - 22.6 °F 53% 29.88 in 10.0 mi Calm Calm - N/A   Overcast
9:15 AM 39.2 °F 35.9 °F 22.3 °F 51% 29.88 in 10.0 mi SSE 4.6 mph - N/A   Overcast
9:35 AM 39.2 °F - 22.3 °F 51% 29.88 in 10.0 mi North - - N/A   Overcast
9:55 AM 41.2 °F - 22.8 °F 48% 29.87 in 10.0 mi North - - N/A   Overcast
10:15 AM 41.0 °F - 22.8 °F 48% 29.86 in 10.0 mi North - - N/A   Overcast
10:35 AM 41.0 °F 34.7 °F 23.0 °F 49% 29.86 in 10.0 mi WNW 10.4 mph - N/A   Overcast
10:55 AM 40.6 °F 36.7 °F 26.2 °F 57% 29.87 in 10.0 mi NW 5.8 mph 20.7 mph N/A   Overcast
11:15 AM 36.5 °F 27.8 °F 31.1 °F 81% 29.86 in 10.0 mi NNW 13.8 mph - N/A   Overcast
11:35 AM 36.7 °F 27.6 °F 30.9 °F 80% 29.86 in 10.0 mi NNW 15.0 mph - N/A   Overcast
11:55 AM 37.0 °F 28.9 °F 30.7 °F 78% 29.86 in 10.0 mi NNW 12.7 mph - N/A   Overcast
12:15 PM 35.4 °F 27.3 °F 31.5 °F 85% 29.87 in 2.5 mi NW 11.5 mph 19.6 mph N/A Snow Light Snow
12:35 PM 32.4 °F 22.5 °F 30.2 °F 92% 29.88 in 0.5 mi NW 13.8 mph - N/A Snow Snow
12:55 PM 32.0 °F 22.5 °F 30.0 °F 92% 29.87 in 0.2 mi NW 12.7 mph 26.5 mph N/A Snow Heavy Snow
1:15 PM 32.0 °F 23.0 °F 30.2 °F 93% 29.88 in 0.2 mi NNW 11.5 mph - N/A Snow Snow
1:35 PM 32.0 °F 24.2 °F 30.4 °F 94% 29.88 in 0.8 mi NNW 9.2 mph - N/A Snow Light Snow
1:55 PM 32.0 °F - 30.6 °F 94% 29.88 in 0.5 mi Calm Calm - N/A Snow Light Snow
4:15 PM 32.9 °F 24.7 °F 27.7 °F 81% 29.93 in 10.0 mi North 10.4 mph 18.4 mph N/A   Overcast
4:35 PM 32.2 °F 24.4 °F 28.4 °F 86% 29.95 in 10.0 mi North 9.2 mph - N/A   Overcast
4:55 PM 32.0 °F 26.4 °F 29.1 °F 89% 29.96 in 1.2 mi NNE 5.8 mph - N/A Snow Light Snow
5:15 PM 31.6 °F 25.1 °F 28.0 °F 87% 29.97 in 3.0 mi North 6.9 mph - N/A Snow Light Snow
5:35 PM 31.6 °F 27.0 °F 28.4 °F 88% 29.98 in 10.0 mi NE 4.6 mph - N/A   Overcast
5:55 PM 31.5 °F 23.5 °F 26.8 °F 83% 29.99 in 10.0 mi North 9.2 mph 16.1 mph N/A   Overcast
6:15 PM 31.8 °F 22.3 °F 25.5 °F 78% 29.99 in 10.0 mi North 12.7 mph - N/A   Overcast
6:35 PM 31.1 °F 26.4 °F 26.4 °F 83% 30.00 in 10.0 mi North 4.6 mph - N/A   Overcast
6:55 PM 30.7 °F 24.9 °F 27.9 °F 89% 30.01 in 10.0 mi ENE 5.8 mph - N/A   Overcast
7:15 PM 30.7 °F 26.0 °F 28.2 °F 90% 30.02 in 5.0 mi East 4.6 mph - N/A Snow Light Snow
7:35 PM 30.7 °F - 27.9 °F 89% 30.03 in 4.0 mi Calm Calm - N/A Snow Light Snow
7:55 PM 30.6 °F 25.8 °F 26.4 °F 85% 30.05 in 10.0 mi ENE 4.6 mph - N/A   Overcast
8:15 PM 30.2 °F 24.3 °F 25.0 °F 81% 30.07 in 10.0 mi ENE 5.8 mph - N/A   Overcast
8:35 PM 29.3 °F 25.6 °F 25.9 °F 87% 30.07 in 5.0 mi ENE 3.5 mph - N/A Snow Light Snow
8:55 PM 28.8 °F 25.0 °F 24.8 °F 85% 30.09 in 10.0 mi NE 3.5 mph - N/A   Overcast
9:15 PM 28.4 °F - 23.7 °F 83% 30.10 in 10.0 mi Calm Calm - N/A   Overcast
9:35 PM 28.4 °F - 24.1 °F 84% 30.11 in 4.0 mi Calm Calm - N/A Snow Light Snow
9:55 PM 27.5 °F - 24.4 °F 88% 30.12 in 4.0 mi Calm Calm - N/A Snow Light Snow
10:15 PM 27.1 °F 23.2 °F 24.3 °F 89% 30.12 in 5.0 mi SSW 3.5 mph - N/A Snow Light Snow
10:35 PM 27.0 °F - 23.9 °F 88% 30.12 in 5.0 mi Calm Calm - N/A Snow Light Snow
10:55 PM 26.6 °F - 23.7 °F 89% 30.13 in 10.0 mi Calm Calm - N/A   Overcast
11:35 PM 27.5 °F - 24.6 °F 89% 30.14 in 7.0 mi Calm Calm - N/A Snow Light Snow
11:55 PM 26.6 °F - 24.4 °F 92% 30.14 in 4.0 mi Calm Calm - N/A Snow Light Snow